COSMOS 249 DEB, 3912

Orbit data source: Space-Track

COSMOS 249 DEB, 3912 is space debris in LEO originally from a launch on Sun, 20 Oct 1968 UTC launched from the Tyuratam Missile And Space Complex (TTMTR). Debris objects in space refer to the collection of defunct objects orbiting the Earth. Examples of debris include non-operational satellites, rocket bodies, and fragments generated from explosions, collisions, or faulty payload assembly.

Loading next visibility...
Identifier
3912, 1968-091BQ
Orbit
LEO
Country
Flag of CISCIS
Related business
Manufacturer
Unknown
Mission
Spacecraft
Bus & Motor
Unknown
Mass
Unknown
Launch date (UTC)
1968-10-20 (57 years ago)
Launch vehicle
Unknown
Launch site
Tyuratam Missile And Space Complex (TTMTR)
Object type
Payload
Rocket body
Debris
Shape & HBR
Unknown shape, 0.1 m
Radar Cross Section
Small (<0.1 m²)

Expand to show TLE details & history
Last TLE update: 2 days ago

TLE from 2 days ago
0 COSMOS 249 DEB
1 03912U 68091BQ  25339.26601597  .00001059  00000-0  15151-2 0  9997
2 03912  62.2497  16.4153 0784539  31.7050 332.8797 12.73912255620610
Epoch: 2025-12-05T06:23Z
TLE epoch observation values (Epoch: 2025-12-05T06:23:03.779Z)
Latitude
-0.00003°
Longitude
-153.66104°
Altitude
837.881 km
Speed
7.684 km/s
True Right ascension
01h 05m 39s
True Declination
0° 00' 00"
Sunlit
Object was in full shadow at epoch
Visualization orbit readout
Latitude
Unknown
Longitude
Unknown
Altitude
Unknown
Speed
Unknown
Apparent Right ascension
Unknown
Apparent Declination
Unknown
Sunlit
N/A
Visualization observer readout
Local Sidereal Time
07:21:46
Azimuth
Unknown
Elevation
Unknown
Doppler factor
Unknown
Orbital elements
Apogee altitude
1,972.528 km
Perigee altitude
757.563 km
Semi-major axis
7,743.183 km
Eccentricity
0.07845
Inclination
62.2497°
RAAN
16.4153°
Arg. of periapsis
31.705°
True anomaly
328.39583°
Mean anomaly
332.8797°
Eccentric anomaly
330.67841°
Mean motion
3.1854 °/min
Orbital period
113.02 mins
BSTAR
0.0015151
Loading maneuver chart data...
Computing Atmospheric mass density...

Documentation

Showing up to 5 results
|